Weather Roundup
Issued by NWS Chicago, IL

Home | Current Version | Previous Version | Graphics & Text | Print | Product List | Glossary Off
Versions: 1 2 3 4 5 6 7 8 9 10 11 12 13 14 15 16 17 18 19 20 21 22 23 24 25 26 27 28 29 30 31 32 33 34 35 36 37 38 39 40 41 42 43 44 45 46 47 48 49 50

000
NZUS59 KLOT 291110
HRRLOT

CHICAGO AREA WEATHER ROUNDUP
NATIONAL WEATHER SERVICE CHICAGO/ROMEOVILLE IL
600 AM CDT TUE JUL 29 2014

NOTE: "FAIR" INDICATES FEW OR NO CLOUDS BELOW 12,000 FEET WITH NO
SIGNIFICANT WEATHER AND/OR OBSTRUCTIONS TO VISIBILITY.

* THESE STATIONS ARE NOT UNDER NWS QUALITY CONTROL. THEY ALSO MAY NOT
  REPORT WEATHER SUCH AS PRECIPITATION OR FOG.

ILZ005-006-012>014-019>023-291200-
NORTHEAST ILLINOIS

CITY           SKY/WX    TMP DP  RH WIND       PRES   REMARKS
OHARE          PTCLDY    59  51  75 W6        30.03S
MIDWAY         PTCLDY    61  54  77 SW5       30.03S
AURORA         CLEAR     52  49  89 W6        30.06R
LANSING*       CLEAR     52  49  91 CALM      30.04S
JOLIET*        CLEAR     54  51  89 CALM      30.06S
WAUKEGAN       CLOUDY    59  53  80 VRB3      30.02R
DUPAGE AIRPORT CLEAR     56  51  84 CALM      30.04S
WHEELING       PTCLDY    60  53  77 CALM      30.05R
KANKAKEE*      CLEAR     53  52  96 CALM      30.07R
MORRIS*        CLEAR     54  53  96 NW5       30.06R
LEWIS AIRPORT* CLEAR     55  52  90 W5        30.05S
NORTHERLY IS     N/A     62  53  72 SW3         N/A
$$

WIZ051-052-058>065-066-070>072-291200-
SOUTHEAST WISCONSIN

CITY           SKY/WX    TMP DP  RH WIND       PRES   REMARKS
MILWAUKEE      PTCLDY    62  53  72 NW6       30.01S
KENOSHA*       CLOUDY    58  54  86 W7        30.03R
RACINE*        MOCLDY    61  54  77 W6        30.03S
BURLINGTON     PTCLDY    53  52  95 CALM      30.03S
WAUKESHA       PTCLDY    57  52  82 W7        30.03S
WEST BEND      PTCLDY    59  52  77 W8        30.02R
$$

INZ001>003-010>013-019-020-291200-
NORTHWEST INDIANA

CITY           SKY/WX    TMP DP  RH WIND       PRES   REMARKS
GARY*          NOT AVBL
MICHIGAN CITY* NOT AVBL
RENSSELAER*    NOT AVBL
VALPARAISO     CLEAR     52  49  89 SW3       30.05S
$$

LMZ740>746-291200-
SOUTHERN LAKE MICHIGAN

STATION/POSITION TIME  SKY/WX   TEMP WIND        PRES    VSBY
                                AIR  DIR/SP/G
                 (UTC)          (F)  (DEG/KT/KT) (MB)    (MI)
HARRISON CRIB    1100            63  270/  7/  8   N/A
BURNHAM HARBOR   1100            63  250/  2/  5   N/A
CALUMET HARBOR   1100            58  220/  3/  4 1015.9R
BURNS HARBOR     NOT AVBL
MICHIGAN CITY    1100            58  180/  7/  9   N/A
$$

ABBREVIATIONS USED IN REMARKS
   TC - TEMPERATURE IN CELSIUS
  WCI - WIND CHILL INDEX
   HX - HEAT INDEX
  VSB - VISIBILITY
$$



USA.gov is the U.S. government's official web portal to all federal, state and local government web resources and services.